NINGXIA-1 8 (49020 NORAD) Tracking and Keplerian Element Data

This shows tracking and keplerian element data for the satellite.

Feedback or suggestion? Click here.




ElementValue
Catalog49020
NameNINGXIA-1 8
Epoch Orbit1373
Epoch Day287.93305963
Epoch Year2021
RAAN11.6137
Inclination44.9975
Eccentricity0.000771
Argument of Perigee355.4291
Mean Anonmoly4.6474
Mean Motion14.08042134
Decay Rate-1.32E-06
L11 49020U 21064C 21287.93305963 -.00000132 00000-0 14636-6 0 9999
L22 49020 44.9975 11.6137 0007710 355.4291 4.6474 14.08042134 13734

Live tracking and technical data element details for NINGXIA-1 8 (NORAD 49020). NINGXIA-1 8 can be tracked NOW for your location showing map with azimuth and elevation plus other details from your city location.

Track the satellite on the map from your city or location and see movement details for azimuth, elevation, latitude, longitude, range, height, and movement on the map or in text.







IsCatalogInMostPopularTable: catalog: 49020, numindb: 21
Update: records affected: 1



GetName: 49020 NINGXIA-1 8

Hit Count: updated at: Tue, 19 Oct 2021 08:18:20 GMT